{"data":{"norad_id":64103,"intl_designator":"2025-110H","name":"STARLINK-34179","alt_names":[],"object_type":"PAYLOAD","status":"ACTIVE","operator":null,"country":"US","launch_date":"2025-05-23","launch_site_code":"AFWTR","launch_vehicle":null,"mission":null,"orbit_class":"UNKNOWN","rcs_meters":null,"size_class":null,"mass_kg":null,"dimensions":null,"purposes":["comms"],"wikipedia_slug":null,"has_3d_model":false,"image_url":null,"decayed_at":null,"tle_current":{"epoch":"2026-05-24T22:45:35.248032Z","epoch_age_seconds":79578,"freshness":"FRESH","line1":"1 64103U 25110H   26144.94832463  .00023896  00000+0  81664-3 0  9994","line2":"2 64103  53.1619  32.8616 0001560 340.1232  19.9708 15.30187256 57558","mean_motion":15.30187256,"eccentricity":0.000156,"inclination_deg":53.1619,"raan_deg":32.8616,"arg_perigee_deg":340.1232,"mean_anomaly_deg":19.9708,"bstar":0.00081664,"rev_number":5755,"period_min":94.106129452695,"perigee_km":474.18399211142,"apogee_km":476.32224982916,"semimajor_km":6853.3901209703,"source":"CELESTRAK","updated_at":"2026-05-25T13:38:20.264804Z"}}}